Location: Osnabrueck
(52.2800°N, 7.9700°E)
Time: 00:52:46
(UTC+02:00)

Envisat - Pass Details

Date: 30 August 2019
Orbit: 764 x 766 km, 98.1° (Epoch: 19 September)

Event Time Altitude Azimuth Distance (km) Brightness Sun altitude
Rises 21:04:55 0° 215° (SW) 3,224 6.4 -7.1°
Reaches altitude 10° 21:08:11 10° 238° (WSW) 2,304 6.0 -7.6°
Maximum altitude 21:11:10 16° 274° (W) 1,949 6.3 -8.0°
Drops below altitude 10° 21:14:10 10° 310° (NW) 2,314 7.0 -8.4°
Sets 21:17:28 0° 333° (NNW) 3,246 7.2 -8.9°
